Simultaneous Nadir Overpasses (SNOs) Predictions

Prediction of SNOs between AQUA and METOP-A Satellite Orbit:

Table of predicted SNOs for the next 14.0 days since TLE Epoch: 8/14/2015
Index Date (AQUA) Time (AQUA) Lat,Lon (AQUA) SZA (AQUA ) Date (METOP-A) Time (METOP-A) Lat,Lon (METOP-A) SZA (METOP-A ) Distance(km) Time Diff (sec)
1 08/15/2015 09:51:07 -73.88,-153.59 120.16 08/15/2015 09:49:57 -73.90,-153.56 120.14 1.81 70
2 08/15/2015 10:40:36 73.97, 13.85 59.95 08/15/2015 10:40:35 73.97, 13.96 59.94 3.50 1
3 08/15/2015 11:30:03 -74.03,-178.65 119.98 08/15/2015 11:31:16 -74.02,-178.59 120.00 2.36 73
4 08/18/2015 05:25:21 -73.86, -87.11 119.30 08/18/2015 05:24:19 -73.88, -87.20 119.27 3.35 62
5 08/18/2015 06:14:50 73.96, 80.32 60.82 08/18/2015 06:14:57 73.95, 80.31 60.81 1.12 7
6 08/18/2015 07:04:22 -74.27,-112.76 118.84 08/18/2015 07:05:32 -74.30,-111.50 118.87 37.97 70
7 08/21/2015 00:59:36 -73.91, -20.77 118.34 08/21/2015 00:58:40 -73.90, -20.74 118.34 1.00 56
8 08/21/2015 01:49:04 73.96, 146.76 61.73 08/21/2015 01:49:18 73.97, 146.77 61.74 1.64 14
9 08/21/2015 02:38:42 -74.57, -47.04 117.60 08/21/2015 02:39:48 -74.56, -44.41 117.70 77.99 66
10 08/23/2015 20:33:49 -73.91, 45.66 117.40 08/23/2015 20:33:00 -73.92, 45.71 117.38 1.93 49
11 08/23/2015 21:23:17 73.97,-146.83 62.68 08/23/2015 21:23:38 73.99,-146.78 62.70 2.89 21
12 08/26/2015 16:08:03 -73.93, 112.06 116.41 08/26/2015 16:07:21 -73.94, 112.16 116.40 3.22 42
13 08/26/2015 16:57:31 73.99, -80.45 63.67 08/26/2015 16:57:59 74.01, -80.34 63.68 3.61 28




NCC Satellite Simultaneous Nadir Overpasses (SNOs) Prediction Service
